AAL3288 KMIA-KLAX

Flight info

Callsign AAL3288
Flight time N/A
Altitude 38000
Route GLADZ4 BAGGS REMIS Y280 LEV J86 PEKON/N0481F400 J86 ELP J50 SSO J4 WLVRN ESTWD HLYWD1
Aircraft B772/H-SDE2E3FGHIJ5LORVWXY/LB1D1

Departure

Time 2026-05-06 21:35
Airport Miami International Airport (KMIA)

Arrival

Time N/A
Airport Los Angeles International Airport (KLAX)
Time Latitude Longitude Altitude Speed Heading
2026-05-06 21:12 25.79820 -80.28464 18 ft 0 kts 178°
2026-05-06 21:27 25.79825 -80.28464 18 ft 2 kts 178°
2026-05-06 21:28 25.79841 -80.28465 18 ft 2 kts 178°
2026-05-06 21:28 25.79857 -80.28466 18 ft 2 kts 178°
2026-05-06 21:28 25.79874 -80.28465 18 ft 2 kts 196°
2026-05-06 21:28 25.79889 -80.28457 18 ft 2 kts 222°
2026-05-06 21:29 25.79900 -80.28442 18 ft 2 kts 246°
2026-05-06 21:29 25.79905 -80.28424 18 ft 0 kts 269°
2026-05-06 21:29 25.79905 -80.28419 18 ft 0 kts 270°
2026-05-06 21:31 25.79905 -80.28421 18 ft 1 kts 270°
2026-05-06 21:31 25.79905 -80.28490 18 ft 14 kts 271°
2026-05-06 21:32 25.79935 -80.28626 18 ft 17 kts 275°
2026-05-06 21:32 25.79925 -80.28953 18 ft 21 kts 267°
2026-05-06 21:32 25.79919 -80.29127 18 ft 22 kts 268°
2026-05-06 21:33 25.79913 -80.29308 18 ft 23 kts 267°
2026-05-06 21:33 25.79904 -80.29499 18 ft 24 kts 267°
2026-05-06 21:33 25.79904 -80.29691 18 ft 25 kts 282°
2026-05-06 21:33 25.79952 -80.29869 18 ft 19 kts 284°
2026-05-06 21:34 25.79960 -80.30023 18 ft 20 kts 277°
2026-05-06 21:34 25.80028 -80.30122 18 ft 10 kts 349°
2026-05-06 21:34 25.80071 -80.30058 18 ft 11 kts 81°
2026-05-06 21:34 25.80091 -80.29715 18 ft 86 kts 88°
2026-05-06 21:35 25.80137 -80.28619 25 ft 168 kts 88°
2026-05-06 21:35 25.80211 -80.27244 893 ft 172 kts 84°
2026-05-06 21:35 25.80289 -80.25772 1886 ft 186 kts 88°
2026-05-06 21:35 25.80427 -80.24245 2907 ft 194 kts 84°
2026-05-06 21:36 25.80508 -80.22557 3838 ft 198 kts 88°
2026-05-06 21:36 25.80548 -80.20853 4272 ft 216 kts 88°
2026-05-06 21:36 25.80654 -80.19122 4750 ft 232 kts 76°
2026-05-06 21:36 25.81323 -80.17475 5184 ft 248 kts 52°
2026-05-06 21:37 25.82684 -80.16219 5633 ft 264 kts 25°
2026-05-06 21:37 25.84490 -80.15790 6291 ft 272 kts
2026-05-06 21:37 25.86378 -80.15780 7151 ft 272 kts
2026-05-06 21:37 25.88289 -80.15758 7974 ft 274 kts
2026-05-06 21:38 25.90221 -80.16050 8768 ft 277 kts 347°
2026-05-06 21:38 25.92085 -80.16656 9532 ft 281 kts 345°
2026-05-06 21:38 25.94048 -80.17354 10294 ft 286 kts 342°
2026-05-06 21:38 25.96118 -80.18442 10793 ft 305 kts 332°
2026-05-06 21:39 25.98083 -80.20097 11269 ft 326 kts 320°
2026-05-06 21:39 25.99766 -80.22311 11709 ft 348 kts 307°
2026-05-06 21:39 26.00996 -80.25011 12102 ft 370 kts 293°
2026-05-06 21:39 26.01669 -80.28181 12486 ft 391 kts 280°
2026-05-06 21:40 26.01713 -80.31508 13034 ft 406 kts 268°
2026-05-06 21:40 26.01231 -80.34793 13776 ft 410 kts 263°
2026-05-06 21:40 26.00714 -80.37935 14548 ft 411 kts 259°
2026-05-06 21:40 25.99790 -80.40945 15232 ft 416 kts 249°
2026-05-06 21:41 25.98373 -80.43778 15860 ft 423 kts 240°
2026-05-06 21:41 25.96690 -80.46497 16509 ft 426 kts 238°
2026-05-06 21:41 25.94942 -80.49183 17172 ft 429 kts 237°
2026-05-06 21:41 25.93155 -80.51854 17862 ft 430 kts 236°
2026-05-06 21:42 25.91340 -80.54522 18510 ft 433 kts 236°
2026-05-06 21:42 25.89500 -80.57197 19119 ft 437 kts 236°
2026-05-06 21:42 25.87644 -80.59869 19734 ft 440 kts 236°
2026-05-06 21:42 25.85767 -80.62555 20377 ft 442 kts 237°
2026-05-06 21:43 25.83891 -80.65228 21014 ft 444 kts 236°
2026-05-06 21:43 25.82002 -80.67911 21631 ft 446 kts 236°
2026-05-06 21:43 25.80090 -80.70673 22234 ft 447 kts 240°
2026-05-06 21:43 25.78536 -80.73634 22802 ft 444 kts 249°
2026-05-06 21:44 25.77447 -80.76787 23347 ft 442 kts 257°
2026-05-06 21:44 25.76546 -80.80047 23915 ft 445 kts 257°
2026-05-06 21:44 25.75648 -80.83355 24474 ft 448 kts 257°
2026-05-06 21:44 25.74756 -80.86637 24985 ft 451 kts 257°
2026-05-06 21:45 25.73839 -80.90005 25486 ft 455 kts 257°
2026-05-06 21:45 25.72925 -80.93357 25981 ft 458 kts 257°
2026-05-06 21:45 25.72008 -80.96712 26511 ft 461 kts 257°
2026-05-06 21:45 25.71067 -81.00156 27024 ft 463 kts 257°
2026-05-06 21:46 25.70138 -81.03546 27487 ft 466 kts 257°
2026-05-06 21:46 25.69188 -81.07014 27993 ft 468 kts 257°
2026-05-06 21:46 25.68240 -81.10466 28499 ft 470 kts 257°
2026-05-06 21:46 25.67287 -81.13937 28952 ft 473 kts 257°
2026-05-06 21:47 25.66488 -81.17453 29352 ft 472 kts 263°
2026-05-06 21:47 25.66148 -81.21014 29702 ft 472 kts 271°
2026-05-06 21:47 25.66283 -81.24663 30095 ft 471 kts 279°
2026-05-06 21:47 25.66890 -81.28188 30590 ft 468 kts 287°
2026-05-06 21:48 25.67950 -81.31550 31263 ft 462 kts 295°
2026-05-06 21:48 25.69328 -81.34731 31950 ft 456 kts 297°
2026-05-06 21:48 25.70743 -81.37853 32570 ft 452 kts 297°
2026-05-06 21:48 25.72153 -81.40960 33112 ft 450 kts 297°
2026-05-06 21:49 25.73584 -81.44110 33639 ft 450 kts 297°
2026-05-06 21:49 25.75007 -81.47245 34181 ft 449 kts 297°
2026-05-06 21:49 25.76470 -81.50468 34813 ft 447 kts 297°
2026-05-06 21:49 25.77934 -81.53696 35444 ft 444 kts 297°
2026-05-06 21:50 25.79402 -81.56935 35966 ft 443 kts 297°
2026-05-06 21:50 25.80880 -81.60198 36372 ft 444 kts 297°
2026-05-06 21:50 25.82418 -81.63594 36758 ft 444 kts 297°
2026-05-06 21:50 25.83943 -81.66967 37157 ft 444 kts 296°
2026-05-06 21:51 25.85445 -81.70289 37610 ft 442 kts 296°
2026-05-06 21:51 25.86947 -81.73604 37977 ft 441 kts 297°
2026-05-06 21:51 25.90617 -81.79334 38016 ft 444 kts 312°
2026-05-06 21:52 25.95776 -81.84078 38016 ft 446 kts 321°
2026-05-06 21:52 26.01345 -81.88715 38018 ft 447 kts 321°
2026-05-06 21:53 26.06596 -81.93110 38015 ft 447 kts 321°
2026-05-06 21:53 26.11801 -81.97483 38019 ft 446 kts 320°
2026-05-06 21:54 26.16966 -82.01833 38015 ft 444 kts 320°
2026-05-06 21:54 26.22031 -82.06105 38015 ft 444 kts 320°
2026-05-06 21:55 26.27061 -82.10355 38012 ft 444 kts 320°
2026-05-06 21:55 26.32122 -82.14636 38014 ft 445 kts 320°
2026-05-06 21:56 26.37120 -82.18868 38008 ft 444 kts 320°
2026-05-06 21:56 26.42130 -82.23116 38018 ft 445 kts 320°
2026-05-06 21:57 26.47252 -82.27463 38020 ft 443 kts 320°
2026-05-06 21:57 26.52278 -82.31735 38018 ft 443 kts 320°
2026-05-06 21:58 26.57223 -82.35941 38017 ft 443 kts 320°
2026-05-06 21:58 26.62213 -82.40190 38016 ft 441 kts 320°
2026-05-06 21:59 26.67194 -82.44438 38017 ft 442 kts 320°
2026-05-06 21:59 26.72142 -82.48662 38017 ft 443 kts 320°
2026-05-06 22:00 26.77117 -82.52913 38014 ft 442 kts 320°
2026-05-06 22:00 26.82096 -82.57172 38013 ft 441 kts 320°
2026-05-06 22:01 26.87047 -82.61414 38015 ft 441 kts 320°
2026-05-06 22:01 26.91948 -82.65615 38015 ft 439 kts 319°
2026-05-06 22:02 26.96887 -82.69855 38023 ft 439 kts 319°
2026-05-06 22:02 27.01777 -82.74058 38026 ft 439 kts 319°
2026-05-06 22:03 27.06652 -82.78252 38024 ft 438 kts 319°
2026-05-06 22:03 27.11271 -82.82799 38027 ft 435 kts 309°
2026-05-06 22:04 27.14633 -82.88438 38026 ft 433 kts 295°
2026-05-06 22:04 27.16827 -82.94771 38027 ft 434 kts 290°
2026-05-06 22:05 27.18910 -83.01250 38021 ft 433 kts 290°
2026-05-06 22:05 27.20959 -83.07652 38011 ft 434 kts 290°
2026-05-06 22:06 27.23002 -83.14054 38006 ft 435 kts 290°
2026-05-06 22:06 27.25043 -83.20468 38008 ft 432 kts 290°
2026-05-06 22:07 27.27096 -83.26933 38011 ft 433 kts 290°
2026-05-06 22:07 27.29118 -83.33314 38007 ft 432 kts 290°
2026-05-06 22:08 27.31158 -83.39763 38005 ft 432 kts 290°
2026-05-06 22:08 27.33175 -83.46149 38003 ft 431 kts 290°
2026-05-06 22:09 27.35193 -83.52554 38005 ft 434 kts 290°
2026-05-06 22:09 27.37215 -83.58980 38012 ft 433 kts 289°
2026-05-06 22:10 27.39235 -83.65412 38015 ft 433 kts 289°
2026-05-06 22:10 27.41242 -83.71816 38025 ft 433 kts 289°
2026-05-06 22:11 27.43243 -83.78211 38031 ft 434 kts 289°
2026-05-06 22:11 27.45252 -83.84643 38029 ft 433 kts 289°
2026-05-06 22:12 27.47250 -83.91052 38028 ft 432 kts 289°
2026-05-06 22:12 27.49238 -83.97443 38030 ft 432 kts 289°
2026-05-06 22:13 27.51225 -84.03840 38025 ft 432 kts 289°
2026-05-06 22:13 27.53207 -84.10232 38024 ft 432 kts 289°
2026-05-06 22:14 27.55186 -84.16627 38025 ft 432 kts 289°
2026-05-06 22:14 27.57161 -84.23022 38023 ft 433 kts 289°
2026-05-06 22:15 27.59149 -84.29470 38023 ft 432 kts 289°
2026-05-06 22:15 27.61120 -84.35874 38024 ft 433 kts 289°
2026-05-06 22:16 27.63092 -84.42292 38021 ft 433 kts 289°
2026-05-06 22:16 27.65055 -84.48695 38022 ft 433 kts 289°
2026-05-06 22:17 27.67010 -84.55084 38018 ft 432 kts 289°
2026-05-06 22:17 27.68967 -84.61488 38019 ft 433 kts 289°
2026-05-06 22:18 27.70922 -84.67900 38036 ft 434 kts 288°
2026-05-06 22:18 27.72867 -84.74292 38033 ft 433 kts 288°
2026-05-06 22:19 27.74814 -84.80702 38028 ft 433 kts 288°
2026-05-06 22:19 27.76763 -84.87131 38030 ft 433 kts 288°
2026-05-06 22:20 27.78692 -84.93506 38028 ft 432 kts 288°
2026-05-06 22:20 27.80644 -84.99967 38028 ft 434 kts 288°
2026-05-06 22:21 27.82569 -85.06350 38028 ft 433 kts 288°
2026-05-06 22:21 27.84508 -85.12795 38025 ft 434 kts 288°
2026-05-06 22:22 27.86449 -85.19257 38014 ft 435 kts 288°
2026-05-06 22:22 27.88380 -85.25698 38013 ft 434 kts 288°
2026-05-06 22:23 27.90324 -85.32117 38017 ft 434 kts 288°
2026-05-06 22:23 27.92280 -85.38567 38017 ft 435 kts 288°
2026-05-06 22:24 27.94239 -85.45038 38016 ft 434 kts 288°
2026-05-06 22:24 27.96185 -85.51484 38019 ft 434 kts 288°
2026-05-06 22:25 27.98128 -85.57933 38020 ft 433 kts 288°
2026-05-06 22:25 28.00081 -85.64426 38019 ft 433 kts 288°
2026-05-06 22:26 28.02014 -85.70868 38031 ft 433 kts 287°
2026-05-06 22:26 28.03958 -85.77354 38030 ft 433 kts 287°
2026-05-06 22:27 28.05897 -85.83841 38029 ft 433 kts 287°
2026-05-06 22:27 28.07822 -85.90292 38029 ft 431 kts 287°
2026-05-06 22:28 28.09734 -85.96712 38029 ft 432 kts 287°
2026-05-06 22:28 28.11664 -86.03204 38029 ft 432 kts 287°
2026-05-06 22:29 28.13585 -86.09679 38024 ft 433 kts 287°
2026-05-06 22:29 28.15506 -86.16167 38017 ft 432 kts 287°
2026-05-06 22:30 28.17433 -86.22688 38013 ft 431 kts 287°
2026-05-06 22:30 28.19341 -86.29156 38011 ft 432 kts 287°
2026-05-06 22:31 28.21254 -86.35657 38010 ft 432 kts 287°
2026-05-06 22:31 28.23163 -86.42156 38004 ft 432 kts 287°
2026-05-06 22:32 28.25082 -86.48699 38000 ft 431 kts 287°
2026-05-06 22:32 28.26975 -86.55168 37998 ft 432 kts 287°
2026-05-06 22:33 28.28883 -86.61704 37996 ft 431 kts 287°
2026-05-06 22:33 28.30777 -86.68202 38006 ft 433 kts 286°
2026-05-06 22:34 28.32681 -86.74714 38007 ft 430 kts 286°
2026-05-06 22:34 28.34569 -86.81158 38003 ft 431 kts 286°
2026-05-06 22:35 28.36455 -86.87606 38005 ft 431 kts 286°
2026-05-06 22:35 28.38361 -86.94137 38008 ft 431 kts 286°
2026-05-06 22:36 28.40234 -87.00570 38008 ft 431 kts 286°
2026-05-06 22:36 28.42125 -87.07077 38005 ft 431 kts 286°
2026-05-06 22:37 28.44002 -87.13545 38002 ft 430 kts 286°
2026-05-06 22:37 28.45866 -87.19984 37998 ft 430 kts 286°
2026-05-06 22:38 28.47735 -87.26455 37995 ft 430 kts 286°
2026-05-06 22:38 28.49594 -87.32901 37991 ft 429 kts 286°
2026-05-06 22:39 28.51470 -87.39421 37991 ft 430 kts 286°
2026-05-06 22:39 28.53320 -87.45864 37984 ft 430 kts 286°
2026-05-06 22:40 28.55177 -87.52343 37980 ft 430 kts 286°
2026-05-06 22:40 28.57034 -87.58833 37982 ft 430 kts 285°
2026-05-06 22:41 28.59792 -87.68501 37988 ft 428 kts 285°
2026-05-06 22:42 28.61614 -87.74902 37989 ft 428 kts 285°
2026-05-06 22:42 28.63456 -87.81390 37983 ft 429 kts 285°
2026-05-06 22:43 28.65287 -87.87847 37975 ft 428 kts 285°
2026-05-06 22:43 28.67099 -87.94253 37974 ft 427 kts 285°
2026-05-06 22:44 28.68860 -88.00689 37966 ft 427 kts 283°
2026-05-06 22:44 28.70469 -88.07189 37966 ft 428 kts 283°
2026-05-06 22:45 28.72073 -88.13699 37965 ft 428 kts 283°
2026-05-06 22:45 28.73674 -88.20207 37970 ft 427 kts 283°
2026-05-06 22:46 28.75266 -88.26693 37976 ft 426 kts 283°
2026-05-06 22:46 28.76862 -88.33212 37973 ft 428 kts 283°
2026-05-06 22:47 28.78444 -88.39687 37971 ft 426 kts 283°
2026-05-06 22:47 28.80025 -88.46175 37970 ft 427 kts 283°
2026-05-06 22:48 28.81615 -88.52713 37967 ft 428 kts 283°
2026-05-06 22:48 28.83200 -88.59243 37966 ft 426 kts 283°
2026-05-06 22:49 28.84774 -88.65749 37967 ft 427 kts 283°
2026-05-06 22:49 28.86343 -88.72242 37977 ft 425 kts 283°
2026-05-06 22:50 28.87907 -88.78733 37975 ft 424 kts 283°
2026-05-06 22:50 28.89467 -88.85223 37971 ft 426 kts 283°
2026-05-06 22:51 28.91026 -88.91720 37967 ft 425 kts 282°
2026-05-06 22:51 28.92572 -88.98180 37955 ft 425 kts 282°
2026-05-06 22:52 28.94125 -89.04684 37950 ft 426 kts 282°
2026-05-06 22:52 28.95680 -89.11214 37947 ft 426 kts 282°
2026-05-06 22:53 28.97223 -89.17703 37944 ft 424 kts 282°
2026-05-06 22:53 28.98762 -89.24197 37942 ft 425 kts 282°
2026-05-06 22:54 29.00290 -89.30655 37945 ft 424 kts 282°
2026-05-06 22:54 29.01827 -89.37167 37942 ft 422 kts 282°
2026-05-06 22:55 29.03348 -89.43626 37945 ft 422 kts 282°
2026-05-06 22:55 29.04866 -89.50085 37946 ft 423 kts 282°
2026-05-06 22:56 29.06375 -89.56526 37945 ft 422 kts 282°
2026-05-06 22:56 29.07893 -89.63020 37944 ft 424 kts 282°
2026-05-06 22:57 29.09408 -89.69513 37958 ft 423 kts 282°
2026-05-06 22:57 29.10932 -89.76063 37956 ft 424 kts 282°
2026-05-06 22:58 29.12456 -89.82627 37953 ft 424 kts 282°
2026-05-06 22:58 29.13993 -89.89262 37948 ft 424 kts 281°
2026-05-06 22:59 29.15511 -89.95834 37947 ft 423 kts 281°
2026-05-06 22:59 29.17026 -90.02407 37939 ft 422 kts 281°
2026-05-06 23:00 29.18552 -90.09042 37936 ft 424 kts 281°
2026-05-06 23:00 29.20063 -90.15630 37935 ft 424 kts 281°
2026-05-06 23:01 29.21581 -90.22266 37930 ft 422 kts 281°
2026-05-06 23:01 29.23068 -90.28782 37929 ft 424 kts 281°
2026-05-06 23:02 29.24571 -90.35383 37923 ft 421 kts 281°
2026-05-06 23:02 29.26055 -90.41916 37917 ft 423 kts 281°
2026-05-06 23:03 29.27556 -90.48536 37914 ft 421 kts 281°
2026-05-06 23:03 29.29042 -90.55115 37912 ft 422 kts 281°
2026-05-06 23:04 29.30545 -90.61780 37910 ft 423 kts 281°
2026-05-06 23:04 29.32035 -90.68401 37928 ft 421 kts 280°
2026-05-06 23:05 29.33516 -90.75004 37925 ft 422 kts 280°
2026-05-06 23:05 29.34975 -90.81519 37925 ft 423 kts 280°
2026-05-06 23:06 29.36443 -90.88094 37926 ft 422 kts 280°
2026-05-06 23:06 29.37900 -90.94637 37918 ft 424 kts 280°
2026-05-06 23:07 29.39356 -91.01188 37919 ft 422 kts 280°
2026-05-06 23:07 29.40811 -91.07757 37913 ft 422 kts 280°
2026-05-06 23:08 29.42260 -91.14309 37911 ft 421 kts 280°
2026-05-06 23:08 29.43697 -91.20828 37908 ft 420 kts 280°
2026-05-06 23:09 29.45142 -91.27399 37906 ft 421 kts 280°
2026-05-06 23:09 29.46576 -91.33933 37905 ft 422 kts 280°
2026-05-06 23:10 29.48012 -91.40497 37900 ft 420 kts 280°
2026-05-06 23:10 29.49443 -91.47050 37894 ft 419 kts 280°
2026-05-06 23:11 29.50861 -91.53561 37895 ft 421 kts 280°
2026-05-06 23:11 29.52298 -91.60175 37893 ft 420 kts 280°
2026-05-06 23:12 29.53725 -91.66759 37907 ft 420 kts 279°
2026-05-06 23:12 29.55139 -91.73303 37902 ft 420 kts 279°
2026-05-06 23:13 29.56538 -91.79786 37902 ft 420 kts 279°
2026-05-06 23:13 29.57956 -91.86380 37899 ft 420 kts 279°
2026-05-06 23:14 29.59369 -91.92964 37899 ft 419 kts 279°
2026-05-06 23:14 29.60765 -91.99490 37892 ft 421 kts 279°
2026-05-06 23:15 29.62174 -92.06092 37891 ft 419 kts 279°
2026-05-06 23:15 29.63562 -92.12610 37884 ft 418 kts 279°
2026-05-06 23:16 29.64945 -92.19126 37888 ft 420 kts 279°
2026-05-06 23:16 29.66341 -92.25715 37888 ft 418 kts 279°
2026-05-06 23:17 29.67706 -92.32177 37881 ft 417 kts 279°
2026-05-06 23:17 29.69113 -92.38857 37871 ft 417 kts 279°
2026-05-06 23:18 29.70507 -92.45490 37876 ft 418 kts 279°
2026-05-06 23:18 29.71917 -92.52218 37878 ft 419 kts 279°
2026-05-06 23:19 29.73311 -92.58886 37879 ft 416 kts 279°
2026-05-06 23:19 29.74688 -92.65494 37877 ft 418 kts 278°
2026-05-06 23:20 29.76029 -92.71942 37889 ft 416 kts 278°
2026-05-06 23:20 29.77374 -92.78428 37884 ft 416 kts 278°
2026-05-06 23:21 29.78724 -92.84953 37882 ft 415 kts 278°
2026-05-06 23:21 29.80053 -92.91399 37877 ft 415 kts 278°
2026-05-06 23:22 29.81387 -92.97880 37884 ft 415 kts 278°
2026-05-06 23:22 29.82708 -93.04321 37888 ft 414 kts 278°
2026-05-06 23:23 29.84031 -93.10784 37887 ft 414 kts 278°
2026-05-06 23:23 29.85343 -93.17214 37885 ft 414 kts 278°
2026-05-06 23:24 29.86656 -93.23663 37877 ft 414 kts 278°
2026-05-06 23:24 29.87975 -93.30156 37874 ft 412 kts 278°
2026-05-06 23:25 29.89274 -93.36571 37870 ft 413 kts 278°
2026-05-06 23:25 29.90576 -93.43019 37863 ft 412 kts 278°
2026-05-06 23:26 29.91875 -93.49470 37860 ft 411 kts 278°
2026-05-06 23:26 29.93171 -93.55919 37859 ft 411 kts 278°
2026-05-06 23:27 29.94464 -93.62373 37859 ft 411 kts 278°
2026-05-06 23:27 29.95768 -93.68900 37879 ft 409 kts 278°
2026-05-06 23:28 29.97084 -93.75504 37882 ft 409 kts 278°
2026-05-06 23:28 29.98393 -93.82091 37882 ft 409 kts 278°
2026-05-06 23:29 29.99715 -93.88769 37879 ft 409 kts 278°
2026-05-06 23:29 30.01019 -93.95365 37876 ft 407 kts 278°
2026-05-06 23:30 30.02298 -94.01856 37875 ft 408 kts 278°
2026-05-06 23:30 30.03607 -94.08518 37872 ft 408 kts 277°
2026-05-06 23:31 30.04930 -94.15273 37872 ft 409 kts 278°
2026-05-06 23:31 30.06266 -94.22111 37866 ft 407 kts 277°
2026-05-06 23:32 30.07580 -94.28859 37867 ft 409 kts 278°
2026-05-06 23:32 30.08881 -94.35555 37869 ft 407 kts 278°
2026-05-06 23:33 30.10181 -94.42270 37862 ft 407 kts 277°
2026-05-06 23:33 30.11459 -94.48882 37855 ft 405 kts 277°
2026-05-06 23:34 30.12712 -94.55389 37852 ft 404 kts 277°
2026-05-06 23:34 30.13958 -94.61880 37851 ft 404 kts 277°
2026-05-06 23:35 30.15218 -94.68462 37871 ft 404 kts 277°
2026-05-06 23:35 30.16468 -94.75003 37872 ft 402 kts 277°
2026-05-06 23:36 30.17725 -94.81614 37872 ft 404 kts 277°
2026-05-06 23:36 30.18969 -94.88162 37866 ft 403 kts 277°
2026-05-06 23:37 30.20191 -94.94621 37874 ft 402 kts 277°
2026-05-06 23:37 30.21438 -95.01224 37876 ft 402 kts 277°
2026-05-06 23:38 30.22715 -95.08013 37872 ft 402 kts 277°
2026-05-06 23:38 30.24005 -95.14887 37872 ft 402 kts 277°
2026-05-06 23:39 30.25293 -95.21773 37874 ft 403 kts 277°
2026-05-06 23:39 30.26570 -95.28622 37878 ft 402 kts 277°
2026-05-06 23:40 30.27842 -95.35465 37875 ft 402 kts 277°
2026-05-06 23:40 30.29078 -95.42140 37878 ft 404 kts 277°
2026-05-06 23:41 30.30280 -95.48642 37876 ft 404 kts 277°
2026-05-06 23:41 30.31505 -95.55289 37880 ft 402 kts 277°
2026-05-06 23:42 30.32729 -95.61950 37881 ft 401 kts 277°
2026-05-06 23:42 30.33933 -95.68528 37906 ft 402 kts 276°
2026-05-06 23:43 30.35129 -95.75075 37903 ft 402 kts 276°
2026-05-06 23:43 30.36326 -95.81650 37903 ft 401 kts 276°
2026-05-06 23:44 30.37497 -95.88102 37908 ft 400 kts 276°
2026-05-06 23:44 30.38675 -95.94608 37911 ft 401 kts 276°
2026-05-06 23:45 30.39854 -96.01142 37920 ft 399 kts 276°
2026-05-06 23:45 30.41051 -96.07798 37917 ft 401 kts 276°
2026-05-06 23:46 30.42215 -96.14286 37922 ft 399 kts 276°
2026-05-06 23:46 30.43403 -96.20934 37918 ft 401 kts 276°
2026-05-06 23:47 30.44600 -96.27647 37915 ft 399 kts 276°
2026-05-06 23:47 30.45803 -96.34419 37911 ft 399 kts 276°
2026-05-06 23:48 30.47015 -96.41263 37911 ft 401 kts 276°
2026-05-06 23:48 30.48223 -96.48101 37912 ft 399 kts 276°
2026-05-06 23:49 30.49428 -96.54948 37915 ft 398 kts 276°
2026-05-06 23:49 30.50616 -96.61721 37916 ft 398 kts 276°
2026-05-06 23:50 30.51812 -96.68555 37938 ft 396 kts 275°
2026-05-06 23:50 30.53582 -96.78722 37943 ft 396 kts 275°
2026-05-06 23:51 30.54766 -96.85545 37943 ft 396 kts 275°
2026-05-06 23:51 30.55938 -96.92323 37944 ft 396 kts 275°
2026-05-06 23:52 30.57114 -96.99149 37944 ft 396 kts 275°
2026-05-06 23:52 30.58275 -97.05910 37942 ft 397 kts 275°
2026-05-06 23:53 30.59436 -97.12685 37940 ft 395 kts 275°
2026-05-06 23:53 30.60592 -97.19460 37943 ft 394 kts 275°
2026-05-06 23:54 30.61711 -97.26043 37943 ft 396 kts 275°
2026-05-06 23:54 30.62802 -97.32471 37942 ft 395 kts 275°
2026-05-06 23:55 30.63913 -97.39045 37935 ft 394 kts 275°
2026-05-06 23:55 30.65025 -97.45651 37933 ft 395 kts 275°
2026-05-06 23:56 30.66118 -97.52157 37939 ft 394 kts 275°
2026-05-06 23:56 30.67252 -97.58930 37945 ft 394 kts 275°
2026-05-06 23:57 30.68362 -97.65584 37936 ft 394 kts 274°
2026-05-06 23:57 30.69439 -97.72057 37957 ft 392 kts 275°
2026-05-06 23:58 30.70499 -97.78445 37966 ft 392 kts 274°
2026-05-06 23:58 30.71601 -97.85123 37968 ft 392 kts 274°
2026-05-06 23:59 30.72670 -97.91611 37971 ft 391 kts 274°
2026-05-06 23:59 30.73764 -97.98273 37966 ft 389 kts 275°
2026-05-07 00:00 30.74872 -98.05045 37978 ft 389 kts 274°
2026-05-07 00:00 30.75915 -98.11442 37975 ft 389 kts 275°
2026-05-07 00:01 30.76976 -98.17966 37982 ft 389 kts 274°
2026-05-07 00:01 30.78066 -98.24701 37967 ft 390 kts 274°
2026-05-07 00:02 30.79156 -98.31448 37973 ft 388 kts 274°
2026-05-07 00:02 30.80243 -98.38206 37978 ft 388 kts 274°
2026-05-07 00:03 30.81317 -98.44908 37984 ft 388 kts 274°
2026-05-07 00:03 30.82380 -98.51562 37980 ft 388 kts 274°
2026-05-07 00:04 30.83440 -98.58212 37981 ft 385 kts 274°
2026-05-07 00:04 30.84504 -98.64920 37979 ft 387 kts 274°
2026-05-07 00:05 30.85558 -98.71587 37998 ft 385 kts 273°
2026-05-07 00:05 30.86613 -98.78284 38010 ft 385 kts 273°
2026-05-07 00:06 30.87643 -98.84840 38016 ft 385 kts 273°
2026-05-07 00:06 30.88659 -98.91335 38006 ft 384 kts 273°
2026-05-07 00:07 30.89684 -98.97904 38005 ft 383 kts 273°
2026-05-07 00:07 30.90718 -99.04560 38011 ft 385 kts 273°
2026-05-07 00:08 30.91756 -99.11267 38001 ft 387 kts 273°
2026-05-07 00:08 30.92779 -99.17896 37987 ft 386 kts 273°
2026-05-07 00:09 30.93801 -99.24545 37990 ft 387 kts 273°
2026-05-07 00:09 30.94787 -99.30978 37994 ft 386 kts 273°
2026-05-07 00:10 30.95756 -99.37324 37996 ft 384 kts 273°
2026-05-07 00:10 30.96725 -99.43697 37992 ft 386 kts 273°
2026-05-07 00:11 30.97667 -99.49902 37998 ft 385 kts 272°
2026-05-07 00:11 30.98625 -99.56245 38004 ft 386 kts 272°
2026-05-07 00:12 30.99586 -99.62620 38008 ft 384 kts 273°
2026-05-07 00:12 31.00540 -99.68977 38030 ft 385 kts 272°
2026-05-07 00:13 31.01496 -99.75364 38031 ft 386 kts 272°
2026-05-07 00:13 31.02439 -99.81697 38033 ft 387 kts 272°
2026-05-07 00:14 31.03386 -99.88068 38031 ft 384 kts 272°
2026-05-07 00:14 31.04313 -99.94330 38034 ft 384 kts 272°
2026-05-07 00:15 31.05234 -100.00586 38035 ft 388 kts 272°
2026-05-07 00:15 31.06165 -100.06910 38028 ft 384 kts 272°
2026-05-07 00:16 31.07088 -100.13218 38032 ft 388 kts 272°
2026-05-07 00:16 31.08019 -100.19579 38021 ft 382 kts 271°
2026-05-07 00:17 31.08930 -100.25854 38022 ft 386 kts 272°
2026-05-07 00:17 31.09863 -100.32297 38016 ft 387 kts 272°
2026-05-07 00:18 31.10834 -100.39015 37997 ft 384 kts 271°
2026-05-07 00:18 31.11796 -100.45714 37987 ft 388 kts 272°
2026-05-07 00:19 31.12766 -100.52474 37977 ft 385 kts 272°
2026-05-07 00:19 31.13699 -100.59023 37982 ft 389 kts 272°
2026-05-07 00:20 31.14661 -100.65778 37986 ft 386 kts 271°
2026-05-07 00:20 31.15608 -100.72473 38007 ft 387 kts 271°
2026-05-07 00:21 31.16553 -100.79162 38010 ft 383 kts 271°
2026-05-07 00:21 31.17492 -100.85854 38009 ft 387 kts 271°
2026-05-07 00:22 31.18423 -100.92493 38009 ft 384 kts 271°
2026-05-07 00:22 31.19349 -100.99138 38015 ft 387 kts 271°
2026-05-07 00:23 31.20283 -101.05859 38019 ft 386 kts 271°
2026-05-07 00:23 31.21177 -101.12328 38018 ft 387 kts 271°
2026-05-07 00:24 31.22122 -101.19177 38018 ft 386 kts 271°
2026-05-07 00:24 31.23019 -101.25706 38010 ft 383 kts 271°
2026-05-07 00:25 31.23903 -101.32175 38006 ft 386 kts 271°
2026-05-07 00:25 31.24801 -101.38765 38004 ft 384 kts 271°
2026-05-07 00:26 31.25683 -101.45274 37995 ft 386 kts 271°
2026-05-07 00:26 31.26574 -101.51859 37997 ft 384 kts 270°
2026-05-07 00:27 31.27450 -101.58366 37998 ft 382 kts 271°
2026-05-07 00:27 31.28323 -101.64868 37989 ft 383 kts 270°
2026-05-07 00:28 31.29184 -101.71323 38015 ft 383 kts 271°
2026-05-07 00:28 31.30025 -101.77636 38017 ft 381 kts 270°
2026-05-07 00:29 31.30859 -101.83926 38012 ft 381 kts 270°